Flag for Germany Weather past 2 weeks in Hof (Saale), Bavaria, Germany

Now
80 °F

Partly sunny.


Feels Like: 80 °F
Forecast: 57 / 76 °F
Wind: 6 mph from Southeast

Location: Hof

Current Time: Jul 26, 2014 at 4:06:24 PM

Latest Report: Jul 26, 2014 at 3:00 PM


Visibility: 22 mi

Pressure: 29.80 "Hg

Humidity: 39%

Dew point: 52 °F

Location of Hof (Saale)Location

Historic Weather in Hof (Saale) — Graph

°F

Hof (Saale) temperature yesterday

Maximum temperature yesterday: 74 °F (at 2:00 PM)
Minimum temperature yesterday: 56 °F (at 6:00 AM)
Average temperature yesterday: 64 °F

Past Weeks' High & Low Weather Summary

 TemperatureHumidityPressure
High87 °F (Jul 20, 4:00 PM)98% (Jul 12, 12:00 AM)30.16 "Hg (Jul 12, 12:00 AM)
Low48 °F (Jul 13, 5:00 AM)25% (Jul 19, 5:00 PM)29.69 "Hg (Jul 20, 7:00 PM)
Average66 °F68%29.92 "Hg
* Reported Jul 11 3:00 PM — Jul 26 3:00 PM, Hof (Saale), Weather by CustomWeather, © 2014

Note: Actual official high and low records may vary slightly from our data, if they occured in-between our weather recording intervals... More about our weather records

Advertising

Hof (Saale) weather history for previous 24 hours

 ConditionsComfort  
Time TempWeatherWind HumidityBarometerVisibility
3:00 PM
Jul 26
80 °FPartly sunny.6 mph39%29.80 "Hg22 mi
2:00 PM78 °FOvercast.2 mph41%29.82 "Hg22 mi
1:00 PM76 °FOvercast.3 mph43%29.84 "Hg19 mi
12:00 PM76 °FOvercast.3 mph49%29.84 "Hg16 mi
11:00 AM73 °FPartly sunny.2 mph55%29.85 "Hg16 mi
10:00 AM69 °FPartly sunny.2 mph66%29.87 "Hg12 mi
9:00 AM64 °FPartly sunny.2 mph76%29.89 "Hg11 mi
8:00 AM59 °FPartly sunny.1 mph86%29.90 "Hg11 mi
7:00 AM57 °FPartly sunny.2 mph90%29.91 "Hg11 mi
6:00 AM56 °FPartly sunny.2 mph94%29.90 "Hg7 mi
5:00 AM56 °FFog.1 mph96%29.90 "Hg2 mi
4:00 AM56 °FFog.1 mph95%29.90 "Hg3 mi
3:00 AM57 °FFog.1 mph95%29.90 "Hg3 mi
2:00 AM58 °FFog.1 mph94%29.90 "Hg3 mi
1:00 AM59 °FClear.1 mph91%29.90 "Hg5 mi
12:00 AM60 °FClear.1 mph89%29.90 "Hg6 mi
11:00 PM
Jul 25
62 °FPassing clouds.2 mph83%29.89 "Hg10 mi
10:00 PM65 °FPassing clouds.1 mph77%29.87 "Hg14 mi
9:00 PM67 °FScattered clouds.2 mph70%29.86 "Hg16 mi
8:00 PM70 °FPassing clouds.2 mph63%29.84 "Hg22 mi
7:00 PM71 °FPassing clouds.3 mph58%29.82 "Hg28 mi
6:00 PM74 °FPartly sunny.3 mph55%29.81 "Hg28 mi
5:00 PM72 °FPartly sunny.2 mph54%29.83 "Hg31 mi
4:00 PM72 °FPartly sunny.3 mph49%29.83 "Hg31 mi
Weather by CustomWeather, © 2014

See weather overviewHow to use our weather pages